Simultaneous Nadir Overpasses (SNOs) Predictions

Prediction of SNOs between FY3D and AQUA Satellite Orbit:

Table of predicted SNOs for the next 14.0 days since TLE Epoch: 1/15/2022
Index Date (FY3D) Time (FY3D) Lat,Lon (FY3D) SZA (FY3D ) Date (AQUA) Time (AQUA) Lat,Lon (AQUA) SZA (AQUA ) Distance(km) Time Diff (sec)
1 01/15/2022 03:58:31 72.90, 116.41 94.04 01/15/2022 03:59:08 72.90, 116.40 94.03 0.39 37
2 01/15/2022 04:48:36 -70.83, -72.37 88.13 01/15/2022 04:47:55 -70.83, -72.36 88.13 0.50 41
3 01/17/2022 19:25:37 -72.73, 65.01 86.65 01/17/2022 19:26:06 -72.73, 64.99 86.66 0.76 29
4 01/17/2022 20:15:43 70.67,-123.86 91.20 01/17/2022 20:14:55 70.67,-123.86 91.20 0.26 48
5 01/20/2022 10:52:42 72.48, 13.75 92.54 01/20/2022 10:53:04 72.49, 13.69 92.55 2.30 22
6 01/20/2022 11:42:46 -70.34,-175.11 89.69 01/20/2022 11:41:50 -70.35,-175.13 89.69 0.85 56
7 01/23/2022 02:19:56 -72.71, -38.50 87.81 01/23/2022 02:20:09 -72.71, -38.47 87.82 1.16 13
8 01/23/2022 03:10:01 70.60, 132.70 89.98 01/23/2022 03:08:57 70.60, 132.75 89.98 1.92 64
9 01/25/2022 17:47:06 72.78, -90.40 91.63 01/25/2022 17:47:11 72.77, -90.33 91.61 2.65 5
10 01/25/2022 18:36:57 -69.97, 81.94 91.31 01/25/2022 18:35:45 -69.97, 81.92 91.30 0.77 72
11 01/28/2022 08:24:39 76.12, 41.46 94.69 01/28/2022 08:25:53 76.21, 41.74 94.74 12.46 74
12 01/28/2022 09:14:04 -72.21,-141.02 89.66 01/28/2022 09:14:01 -72.21,-141.04 89.65 1.03 3



Historial Predications of SNOs between FY3D and AQUA
